NOAA 16 DEB, 42340

Orbit data source: Space-Track

NOAA 16 DEB, 42340 is space debris in SSO originally from a launch on Thu, 21 Sep 2000 UTC launched from the Air Force Western Test Range (AFWTR). Debris objects in space refer to the collection of defunct objects orbiting the Earth. Examples of debris include non-operational satellites, rocket bodies, and fragments generated from explosions, collisions, or faulty payload assembly.

Loading next visibility...
Identifier
42340, 2000-055QG
Orbit
SSO
Country
Flag of USUS
Related business
Manufacturer
Unknown
Mission
Spacecraft
Bus & Motor
Unknown
Mass
Unknown
Launch date (UTC)
2000-09-21 (26 years ago)
Launch vehicle
Unknown
Launch site
Air Force Western Test Range (AFWTR)
Object type
Payload
Rocket body
Debris
Shape & HBR
Unknown shape, 0.1 m
Radar Cross Section
Medium (>0.1 m² and <1 m²)

Expand to show TLE details & history
Last TLE update: 2 days ago

TLE from 2 days ago
0 NOAA 16 DEB
1 42340U 00055QG  26217.93058451  .00005612  00000-0  14451-2 0  9997
2 42340  99.0251  27.2416 0026468  97.0401 263.3803 14.50322952539230
Epoch: 2026-08-05T22:20Z
TLE epoch observation values (Epoch: 2026-08-05T22:20:02.501Z)
Latitude
0.00001°
Longitude
97.75326°
Altitude
729.756 km
Speed
7.489 km/s
True Right ascension
01h 48m 57s
True Declination
0° 00' 00"
Sunlit
Object was in daylight at epoch
Visualization orbit readout
Latitude
Unknown
Longitude
Unknown
Altitude
Unknown
Speed
Unknown
Apparent Right ascension
Unknown
Apparent Declination
Unknown
Sunlit
N/A
Visualization observer readout
Local Sidereal Time
00:03:28
Azimuth
Unknown
Elevation
Unknown
Doppler factor
Unknown
Orbital elements
Apogee altitude
740.52 km
Perigee altitude
702.936 km
Semi-major axis
7,099.865 km
Eccentricity
0.00265
Inclination
99.0251°
RAAN
27.2416°
Arg. of periapsis
97.0401°
True anomaly
263.07914°
Mean anomaly
263.3803°
Eccentric anomaly
263.22971°
Mean motion
3.62801 °/min
Orbital period
99.23 mins
BSTAR
0.0014451
Loading maneuver chart data...
Computing Atmospheric mass density...
Loading historical data...
Loading historical data...
Loading historical data...
Loading historical data...
Loading historical data...
Loading historical data...
Loading historical data...

Documentation

Showing up to 5 results
|